Starlink 35566

operational
NORAD ID: 66061 Int'l Des: 2025-235 Owner: SPXS Country: US Constellation: starlink
NOTLE

About Starlink 35566

Description loading...

Live Position

Loading 3D Globe...

Upcoming Passes

Altitude History

Altitude vs Time

uPlot chart will show altitude changes over time

Two-Line Element Set

1 66061U 25235D 25318.78381961 .00131495 00000-0 23325-2 0 9998
2 66061 53.1597 60.7805 0000751 2.3576 357.7437 15.49311756 5309
Epoch: Nov 14, 2025 • Age: 9 hours

Current Status

Altitude 437.0 km
Velocity 7.65 km/s
Sub-Earth Point -53.20°S, 146.24°W
Launch Date Oct 19, 2025
Age 26 days
Type internet

Technical Details

Classification Payload
Mass 575.00 kg
Dry Mass 530.00 kg
Total Mass 575.00 kg
Length 0.30 m
Diameter 4.10 m
Span 29.00 m
Shape Box + pan
Manufacturer SPXS
Bus Type Starlink V2MO
Phase Status In Orbit
Owner/State SPXS/US

Large Constellations

Loading constellations...